Time,TemperatureF,DewpointF,PressureIn,WindDirection,WindDirectionDegrees,WindSpeedMPH,WindSpeedGustMPH,Humidity,HourlyPrecipIn,Conditions,Clouds,dailyrainin,SoftwareType,DateUTC
2013-09-25 00:00:00,49.2,46.4,29.98,ENE,62,0.0,0.0,90,0.00,,CLR,0.00,VWS V14.01,2013-09-25 04:00:00,
2013-09-25 00:01:00,48.2,46.0,29.97,ENE,62,0.0,0.0,92,0.00,,CLR,0.00,VWS V14.01,2013-09-25 04:01:00,
2013-09-25 00:02:00,48.2,46.0,29.97,ENE,62,0.0,0.0,92,0.00,,CLR,0.00,VWS V14.01,2013-09-25 04:02:00,
2013-09-25 00:07:00,48.2,46.0,29.97,ENE,62,0.0,0.0,92,0.00,,CLR,0.00,VWS V14.01,2013-09-25 04:07:00,
2013-09-25 00:12:00,48.2,46.0,29.97,ENE,62,0.0,0.0,92,0.00,,CLR,0.00,VWS V14.01,2013-09-25 04:12:00,
2013-09-25 00:15:00,48.9,46.1,29.98,ENE,62,0.0,0.0,90,0.00,,CLR,0.00,VWS V14.01,2013-09-25 04:15:00,
2013-09-25 00:17:00,48.0,45.8,29.96,ENE,62,0.0,0.0,92,0.00,,CLR,0.00,VWS V14.01,2013-09-25 04:17:00,
2013-09-25 00:22:00,47.7,45.5,29.96,ENE,62,0.0,0.0,92,0.00,,CLR,0.00,VWS V14.01,2013-09-25 04:22:00,
2013-09-25 00:27:00,47.6,45.4,29.96,ENE,62,0.0,0.0,92,0.00,,CLR,0.00,VWS V14.01,2013-09-25 04:27:00,
2013-09-25 00:30:00,48.6,46.1,29.98,ENE,62,0.0,0.0,91,0.00,,CLR,0.00,VWS V14.01,2013-09-25 04:30:00,
2013-09-25 00:32:00,47.4,45.2,29.96,ENE,62,0.0,0.0,92,0.00,,CLR,0.00,VWS V14.01,2013-09-25 04:32:00,
2013-09-25 00:37:00,47.4,45.2,29.96,ENE,62,0.0,0.0,92,0.00,,CLR,0.00,VWS V14.01,2013-09-25 04:37:00,
2013-09-25 00:42:00,47.3,45.1,29.96,ENE,62,0.0,0.0,92,0.00,,CLR,0.00,VWS V14.01,2013-09-25 04:42:00,
2013-09-25 00:45:00,48.2,45.7,29.98,ENE,62,0.0,0.0,91,0.00,,CLR,0.00,VWS V14.01,2013-09-25 04:45:00,
2013-09-25 00:47:00,47.3,45.4,29.95,ENE,62,0.0,0.0,93,0.00,,CLR,0.00,VWS V14.01,2013-09-25 04:47:00,
2013-09-25 00:52:00,47.3,45.4,29.95,ENE,62,0.0,0.0,93,0.00,,CLR,0.00,VWS V14.01,2013-09-25 04:52:00,
2013-09-25 00:57:00,47.1,45.2,29.95,ENE,62,0.0,0.0,93,0.00,,CLR,0.00,VWS V14.01,2013-09-25 04:57:00,
2013-09-25 01:00:00,48.2,46.0,29.97,ENE,62,0.0,0.0,92,0.00,,CLR,0.00,VWS V14.01,2013-09-25 05:00:00,
2013-09-25 01:02:00,47.1,45.2,29.95,ENE,62,0.0,0.0,93,0.00,,CLR,0.00,VWS V14.01,2013-09-25 05:02:00,
2013-09-25 01:07:00,47.0,45.1,29.95,ENE,62,0.0,0.0,93,0.00,,CLR,0.00,VWS V14.01,2013-09-25 05:07:00,
2013-09-25 01:12:00,47.0,45.1,29.95,ENE,62,0.0,0.0,93,0.00,,CLR,0.00,VWS V14.01,2013-09-25 05:12:00,
2013-09-25 01:15:00,48.0,45.8,29.96,ENE,62,0.0,0.0,92,0.00,,CLR,0.00,VWS V14.01,2013-09-25 05:15:00,
2013-09-25 01:17:00,46.8,44.9,29.94,ENE,62,0.0,0.0,93,0.00,,CLR,0.00,VWS V14.01,2013-09-25 05:17:00,
2013-09-25 01:22:00,46.8,44.9,29.94,ENE,62,0.0,0.0,93,0.00,,CLR,0.00,VWS V14.01,2013-09-25 05:22:00,
2013-09-25 01:27:00,46.7,44.8,29.94,ENE,62,0.0,0.0,93,0.00,,CLR,0.00,VWS V14.01,2013-09-25 05:27:00,
2013-09-25 01:30:00,47.6,45.4,29.96,ENE,62,0.0,0.0,92,0.00,,CLR,0.00,VWS V14.01,2013-09-25 05:30:00,
2013-09-25 01:32:00,46.7,44.8,29.95,ENE,62,0.0,0.0,93,0.00,,CLR,0.00,VWS V14.01,2013-09-25 05:32:00,
2013-09-25 01:37:00,46.5,44.6,29.95,ENE,62,0.0,0.0,93,0.00,,CLR,0.00,VWS V14.01,2013-09-25 05:37:00,
2013-09-25 01:42:00,46.4,44.5,29.95,ENE,62,0.0,0.0,93,0.00,,CLR,0.00,VWS V14.01,2013-09-25 05:42:00,
2013-09-25 01:45:00,47.3,45.1,29.95,ENE,62,0.0,0.0,92,0.00,,CLR,0.00,VWS V14.01,2013-09-25 05:45:00,
2013-09-25 01:47:00,46.2,44.3,29.95,ENE,62,0.0,0.0,93,0.00,,CLR,0.00,VWS V14.01,2013-09-25 05:47:00,
2013-09-25 01:52:00,46.1,44.2,29.95,ENE,62,0.0,0.0,93,0.00,,CLR,0.00,VWS V14.01,2013-09-25 05:52:00,
2013-09-25 01:57:00,46.0,44.1,29.95,ENE,62,0.0,0.0,93,0.00,,CLR,0.00,VWS V14.01,2013-09-25 05:57:00,
2013-09-25 02:00:00,47.1,45.2,29.95,ENE,62,0.0,0.0,93,0.00,,CLR,0.00,VWS V14.01,2013-09-25 06:00:00,
2013-09-25 02:02:00,45.8,43.9,29.95,ENE,62,0.0,0.0,93,0.00,,,0.00,VWS V14.01,2013-09-25 06:02:00,
2013-09-25 02:07:00,45.8,43.9,29.95,ENE,62,0.0,0.0,93,0.00,,,0.00,VWS V14.01,2013-09-25 06:07:00,
2013-09-25 02:12:00,45.8,43.9,29.95,ENE,62,0.0,0.0,93,0.00,,,0.00,VWS V14.01,2013-09-25 06:12:00,
2013-09-25 02:15:00,47.0,45.1,29.94,ENE,62,0.0,0.0,93,0.00,,CLR,0.00,VWS V14.01,2013-09-25 06:15:00,
2013-09-25 02:17:00,45.8,43.9,29.94,ENE,62,0.0,0.0,93,0.00,,,0.00,VWS V14.01,2013-09-25 06:17:00,
2013-09-25 02:22:00,45.7,43.8,29.94,ENE,62,0.0,0.0,93,0.00,,,0.00,VWS V14.01,2013-09-25 06:22:00,
2013-09-25 02:27:00,45.5,43.6,29.94,ENE,62,0.0,0.0,93,0.00,,,0.00,VWS V14.01,2013-09-25 06:27:00,
2013-09-25 02:30:00,46.7,44.8,29.95,ENE,62,0.0,0.0,93,0.00,,CLR,0.00,VWS V14.01,2013-09-25 06:30:00,
2013-09-25 02:32:00,45.4,43.5,29.94,ENE,62,0.0,0.0,93,0.00,,,0.00,VWS V14.01,2013-09-25 06:32:00,
2013-09-25 02:37:00,45.4,43.8,29.94,ENE,62,0.0,0.0,94,0.00,,,0.00,VWS V14.01,2013-09-25 06:37:00,
2013-09-25 02:42:00,45.4,43.8,29.94,ENE,62,0.0,0.0,94,0.00,,,0.00,VWS V14.01,2013-09-25 06:42:00,
2013-09-25 02:45:00,46.2,44.3,29.95,ENE,62,0.0,0.0,93,0.00,,CLR,0.00,VWS V14.01,2013-09-25 06:45:00,
2013-09-25 02:47:00,45.5,43.9,29.93,ENE,62,0.0,0.0,94,0.00,,,0.00,VWS V14.01,2013-09-25 06:47:00,
2013-09-25 02:52:00,45.4,43.8,29.93,ENE,62,0.0,0.0,94,0.00,,,0.00,VWS V14.01,2013-09-25 06:52:00,
2013-09-25 02:57:00,45.2,43.6,29.93,ENE,62,0.0,0.0,94,0.00,,,0.00,VWS V14.01,2013-09-25 06:57:00,
2013-09-25 03:00:00,46.0,44.1,29.95,ENE,62,0.0,0.0,93,0.00,,CLR,0.00,VWS V14.01,2013-09-25 07:00:00,
2013-09-25 03:02:00,45.4,43.8,29.93,ENE,62,0.0,0.0,94,0.00,,,0.00,VWS V14.01,2013-09-25 07:02:00,
2013-09-25 03:07:00,45.2,43.6,29.93,ENE,62,0.0,0.0,94,0.00,,,0.00,VWS V14.01,2013-09-25 07:07:00,
2013-09-25 03:12:00,45.2,43.6,29.93,ENE,62,0.0,0.0,94,0.00,,,0.00,VWS V14.01,2013-09-25 07:12:00,
2013-09-25 03:15:00,45.8,43.9,29.94,ENE,62,0.0,0.0,93,0.00,,CLR,0.00,VWS V14.01,2013-09-25 07:15:00,
2013-09-25 03:17:00,45.2,43.6,29.93,ENE,62,0.0,0.0,94,0.00,,,0.00,VWS V14.01,2013-09-25 07:17:00,
2013-09-25 03:22:00,45.2,43.6,29.93,ENE,62,0.0,0.0,94,0.00,,,0.00,VWS V14.01,2013-09-25 07:22:00,
2013-09-25 03:27:00,45.1,43.5,29.93,ENE,62,0.0,0.0,94,0.00,,,0.00,VWS V14.01,2013-09-25 07:27:00,
2013-09-25 03:30:00,45.4,43.5,29.94,ENE,62,0.0,0.0,93,0.00,,CLR,0.00,VWS V14.01,2013-09-25 07:30:00,
2013-09-25 03:32:00,44.6,43.0,29.93,ENE,62,0.0,0.0,94,0.00,,,0.00,VWS V14.01,2013-09-25 07:32:00,
2013-09-25 03:37:00,44.2,42.6,29.93,ENE,62,0.0,0.0,94,0.00,,,0.00,VWS V14.01,2013-09-25 07:37:00,
2013-09-25 03:42:00,44.1,42.5,29.93,ENE,62,0.0,0.0,94,0.00,,,0.00,VWS V14.01,2013-09-25 07:42:00,
2013-09-25 03:45:00,45.5,43.9,29.93,ENE,62,0.0,0.0,94,0.00,,CLR,0.00,VWS V14.01,2013-09-25 07:45:00,
2013-09-25 03:47:00,43.9,42.3,29.92,ENE,62,0.0,0.0,94,0.00,,SCT002,0.00,VWS V14.01,2013-09-25 07:47:00,
2013-09-25 03:52:00,43.8,42.2,29.92,ENE,62,0.0,0.0,94,0.00,,SCT002,0.00,VWS V14.01,2013-09-25 07:52:00,
2013-09-25 03:57:00,43.8,42.2,29.92,ENE,62,0.0,0.0,94,0.00,,SCT002,0.00,VWS V14.01,2013-09-25 07:57:00,
2013-09-25 04:00:00,45.4,43.8,29.93,ENE,62,0.0,0.0,94,0.00,,CLR,0.00,VWS V14.01,2013-09-25 08:00:00,
2013-09-25 04:02:00,43.6,42.0,29.91,ENE,62,0.0,0.0,94,0.00,,,0.00,VWS V14.01,2013-09-25 08:02:00,
2013-09-25 04:07:00,43.6,42.0,29.91,ENE,62,0.0,0.0,94,0.00,,,0.00,VWS V14.01,2013-09-25 08:07:00,
2013-09-25 04:12:00,43.5,41.9,29.91,ENE,62,0.0,0.0,94,0.00,,,0.00,VWS V14.01,2013-09-25 08:12:00,
2013-09-25 04:15:00,45.2,43.6,29.93,ENE,62,0.0,0.0,94,0.00,,CLR,0.00,VWS V14.01,2013-09-25 08:15:00,
2013-09-25 04:17:00,43.5,41.9,29.92,ENE,62,0.0,0.0,94,0.00,,,0.00,VWS V14.01,2013-09-25 08:17:00,
2013-09-25 04:23:00,43.3,41.7,29.92,ENE,62,0.0,0.0,94,0.00,,,0.00,VWS V14.01,2013-09-25 08:23:00,
2013-09-25 04:28:00,43.3,41.7,29.92,ENE,62,0.0,0.0,94,0.00,,,0.00,VWS V14.01,2013-09-25 08:28:00,
2013-09-25 04:30:00,44.8,43.2,29.93,ENE,62,0.0,0.0,94,0.00,,CLR,0.00,VWS V14.01,2013-09-25 08:30:00,
2013-09-25 04:33:00,43.5,42.2,29.91,ENE,62,0.0,0.0,95,0.00,,,0.00,VWS V14.01,2013-09-25 08:33:00,
2013-09-25 04:38:00,43.5,41.9,29.91,ENE,62,0.0,0.0,94,0.00,,,0.00,VWS V14.01,2013-09-25 08:38:00,
2013-09-25 04:43:00,43.5,42.2,29.91,ENE,62,0.0,0.0,95,0.00,,,0.00,VWS V14.01,2013-09-25 08:43:00,
2013-09-25 04:45:00,43.9,42.3,29.92,ENE,62,0.0,0.0,94,0.00,,CLR,0.00,VWS V14.01,2013-09-25 08:45:00,
2013-09-25 04:48:00,43.6,42.3,29.91,ENE,62,0.0,0.0,95,0.00,,,0.00,VWS V14.01,2013-09-25 08:48:00,
2013-09-25 04:53:00,43.8,42.5,29.91,ENE,62,0.0,0.0,95,0.00,,,0.00,VWS V14.01,2013-09-25 08:53:00,
2013-09-25 04:58:00,43.8,42.5,29.91,ENE,62,0.0,0.0,95,0.00,,,0.00,VWS V14.01,2013-09-25 08:58:00,
2013-09-25 05:00:00,43.8,42.2,29.91,ENE,62,0.0,0.0,94,0.00,,CLR,0.00,VWS V14.01,2013-09-25 09:00:00,
2013-09-25 05:03:00,43.8,42.5,29.91,ENE,62,0.0,0.0,95,0.00,,,0.00,VWS V14.01,2013-09-25 09:03:00,
2013-09-25 05:08:00,44.1,42.8,29.91,ENE,62,0.0,0.0,95,0.00,,,0.00,VWS V14.01,2013-09-25 09:08:00,
2013-09-25 05:13:00,44.2,42.9,29.91,ENE,62,0.0,0.0,95,0.00,,,0.00,VWS V14.01,2013-09-25 09:13:00,
2013-09-25 05:15:00,43.5,41.9,29.92,ENE,62,0.0,0.0,94,0.00,,CLR,0.00,VWS V14.01,2013-09-25 09:15:00,
2013-09-25 05:18:00,44.5,43.2,29.91,ENE,62,0.0,0.0,95,0.00,,,0.00,VWS V14.01,2013-09-25 09:18:00,
2013-09-25 05:23:00,44.5,43.2,29.91,ENE,62,0.0,0.0,95,0.00,,,0.00,VWS V14.01,2013-09-25 09:23:00,
2013-09-25 05:28:00,44.6,43.3,29.91,ENE,62,0.0,0.0,95,0.00,,,0.00,VWS V14.01,2013-09-25 09:28:00,
2013-09-25 05:30:00,43.3,41.7,29.91,ENE,62,0.0,0.0,94,0.00,,CLR,0.00,VWS V14.01,2013-09-25 09:30:00,
2013-09-25 05:33:00,44.6,43.3,29.91,ENE,62,0.0,0.0,95,0.00,,,0.00,VWS V14.01,2013-09-25 09:33:00,
2013-09-25 05:38:00,44.6,43.3,29.91,ENE,62,0.0,0.0,95,0.00,,,0.00,VWS V14.01,2013-09-25 09:38:00,
2013-09-25 05:43:00,44.5,43.2,29.91,ENE,62,0.0,0.0,95,0.00,,,0.00,VWS V14.01,2013-09-25 09:43:00,
2013-09-25 05:45:00,43.5,42.2,29.91,ENE,62,0.0,0.0,95,0.00,,CLR,0.00,VWS V14.01,2013-09-25 09:45:00,
2013-09-25 05:48:00,44.3,43.0,29.91,ENE,62,0.0,0.0,95,0.00,,,0.00,VWS V14.01,2013-09-25 09:48:00,
2013-09-25 05:53:00,44.2,42.9,29.91,ENE,62,0.0,0.0,95,0.00,,,0.00,VWS V14.01,2013-09-25 09:53:00,
2013-09-25 05:58:00,44.2,42.9,29.91,ENE,62,0.0,0.0,95,0.00,,,0.00,VWS V14.01,2013-09-25 09:58:00,
2013-09-25 06:00:00,43.8,42.5,29.91,ENE,62,0.0,0.0,95,0.00,,CLR,0.00,VWS V14.01,2013-09-25 10:00:00,
2013-09-25 06:03:00,44.3,43.0,29.91,ENE,62,0.0,0.0,95,0.00,,,0.00,VWS V14.01,2013-09-25 10:03:00,
2013-09-25 06:07:00,44.3,43.0,29.91,ENE,62,0.0,0.0,95,0.00,,,0.00,VWS V14.01,2013-09-25 10:07:00,
2013-09-25 06:12:00,44.6,43.3,29.91,NNE,32,1.0,2.0,95,0.00,,,0.00,VWS V14.01,2013-09-25 10:12:00,
2013-09-25 06:15:00,44.3,43.0,29.91,ENE,62,0.0,0.0,95,0.00,,CLR,0.00,VWS V14.01,2013-09-25 10:15:00,
2013-09-25 06:17:00,45.1,44.0,29.91,NNE,32,0.0,2.0,96,0.00,,,0.00,VWS V14.01,2013-09-25 10:17:00,
2013-09-25 06:22:00,45.5,44.4,29.91,NNE,32,0.0,0.0,96,0.00,,,0.00,VWS V14.01,2013-09-25 10:22:00,
2013-09-25 06:27:00,45.8,44.7,29.91,NNE,32,0.0,0.0,96,0.00,,,0.00,VWS V14.01,2013-09-25 10:27:00,
2013-09-25 06:30:00,44.6,43.3,29.91,ENE,62,0.0,0.0,95,0.00,,CLR,0.00,VWS V14.01,2013-09-25 10:30:00,
2013-09-25 06:32:00,46.1,45.0,29.91,NNE,32,0.0,0.0,96,0.00,,,0.00,VWS V14.01,2013-09-25 10:32:00,
2013-09-25 06:37:00,46.2,45.1,29.91,NNE,32,0.0,0.0,96,0.00,,,0.00,VWS V14.01,2013-09-25 10:37:00,
2013-09-25 06:42:00,46.2,44.8,29.91,NNE,32,0.0,0.0,95,0.00,,,0.00,VWS V14.01,2013-09-25 10:42:00,
2013-09-25 06:45:00,44.5,43.2,29.91,ENE,62,0.0,0.0,95,0.00,,CLR,0.00,VWS V14.01,2013-09-25 10:45:00,
2013-09-25 06:48:00,46.1,44.8,29.92,NNE,32,0.0,0.0,95,0.00,,,0.00,VWS V14.01,2013-09-25 10:48:00,
2013-09-25 06:53:00,46.1,45.0,29.92,NNE,32,0.0,0.0,96,0.00,,,0.00,VWS V14.01,2013-09-25 10:53:00,
2013-09-25 06:58:00,46.1,44.8,29.92,NNE,32,0.0,0.0,95,0.00,,,0.00,VWS V14.01,2013-09-25 10:58:00,
2013-09-25 07:00:00,44.2,42.9,29.91,ENE,62,0.0,0.0,95,0.00,,CLR,0.00,VWS V14.01,2013-09-25 11:00:00,
2013-09-25 07:03:00,46.0,44.7,29.92,NNE,32,0.0,0.0,95,0.00,,,0.00,VWS V14.01,2013-09-25 11:03:00,
2013-09-25 07:08:00,45.8,44.5,29.92,NNE,32,0.0,0.0,95,0.00,,,0.00,VWS V14.01,2013-09-25 11:08:00,
2013-09-25 07:13:00,45.8,44.5,29.92,NNE,32,0.0,0.0,95,0.00,,,0.00,VWS V14.01,2013-09-25 11:13:00,
2013-09-25 07:15:00,44.8,43.7,29.91,NNE,32,0.0,2.0,96,0.00,,CLR,0.00,VWS V14.01,2013-09-25 11:15:00,
2013-09-25 07:18:00,45.7,44.3,29.93,NNE,32,0.0,0.0,95,0.00,,,0.00,VWS V14.01,2013-09-25 11:18:00,
2013-09-25 07:23:00,45.5,44.2,29.93,NNE,32,0.0,0.0,95,0.00,,,0.00,VWS V14.01,2013-09-25 11:23:00,
2013-09-25 07:28:00,45.4,44.0,29.93,NNE,32,0.0,0.0,95,0.00,,,0.00,VWS V14.01,2013-09-25 11:28:00,
2013-09-25 07:30:00,46.0,44.9,29.91,NNE,32,0.0,0.0,96,0.00,,CLR,0.00,VWS V14.01,2013-09-25 11:30:00,
2013-09-25 07:33:00,45.2,43.9,29.93,NNE,32,0.0,0.0,95,0.00,,,0.00,VWS V14.01,2013-09-25 11:33:00,
2013-09-25 07:38:00,45.1,43.8,29.93,NNE,32,0.0,0.0,95,0.00,,,0.00,VWS V14.01,2013-09-25 11:38:00,
2013-09-25 07:43:00,45.1,44.0,29.93,NNE,32,0.0,0.0,96,0.00,,,0.00,VWS V14.01,2013-09-25 11:43:00,
2013-09-25 07:45:00,46.1,44.8,29.92,NNE,32,0.0,0.0,95,0.00,,CLR,0.00,VWS V14.01,2013-09-25 11:45:00,
2013-09-25 07:48:00,45.2,44.1,29.94,NNE,32,0.0,0.0,96,0.00,,,0.00,VWS V14.01,2013-09-25 11:48:00,
2013-09-25 07:53:00,45.2,44.1,29.94,NNE,32,0.0,0.0,96,0.00,,,0.00,VWS V14.01,2013-09-25 11:53:00,
2013-09-25 07:57:00,45.5,44.4,29.94,NNE,32,0.0,0.0,96,0.00,,,0.00,VWS V14.01,2013-09-25 11:57:00,
2013-09-25 08:00:00,46.1,44.8,29.92,NNE,32,0.0,0.0,95,0.00,,CLR,0.00,VWS V14.01,2013-09-25 12:00:00,
2013-09-25 08:02:00,45.8,44.7,29.94,NNE,32,0.0,0.0,96,0.00,,,0.00,VWS V14.01,2013-09-25 12:02:00,
2013-09-25 08:07:00,46.1,45.0,29.94,NNE,32,0.0,0.0,96,0.00,,,0.00,VWS V14.01,2013-09-25 12:07:00,
2013-09-25 08:12:00,46.5,45.4,29.94,NNE,32,0.0,0.0,96,0.00,,,0.00,VWS V14.01,2013-09-25 12:12:00,
2013-09-25 08:15:00,45.8,44.5,29.93,NNE,32,0.0,0.0,95,0.00,,CLR,0.00,VWS V14.01,2013-09-25 12:15:00,
2013-09-25 08:17:00,46.8,45.7,29.95,NNE,32,0.0,0.0,96,0.00,,,0.00,VWS V14.01,2013-09-25 12:17:00,
2013-09-25 08:22:00,47.4,46.6,29.95,NNE,32,0.0,0.0,97,0.00,,,0.00,VWS V14.01,2013-09-25 12:22:00,
2013-09-25 08:27:00,48.0,48.0,29.95,NNE,32,0.0,0.0,100,0.00,,,0.00,VWS V14.01,2013-09-25 12:27:00,
2013-09-25 08:30:00,45.2,43.9,29.93,NNE,32,0.0,0.0,95,0.00,,CLR,0.00,VWS V14.01,2013-09-25 12:30:00,
2013-09-25 08:32:00,48.9,48.9,29.95,NNE,32,0.0,0.0,100,0.00,,,0.00,VWS V14.01,2013-09-25 12:32:00,
2013-09-25 08:37:00,49.8,49.8,29.95,NNE,32,0.0,0.0,100,0.00,,,0.00,VWS V14.01,2013-09-25 12:37:00,
2013-09-25 08:42:00,50.2,50.2,29.95,NNE,32,0.0,0.0,100,0.00,,,0.00,VWS V14.01,2013-09-25 12:42:00,
2013-09-25 08:45:00,45.2,44.1,29.94,NNE,32,0.0,0.0,96,0.00,,CLR,0.00,VWS V14.01,2013-09-25 12:45:00,
2013-09-25 08:47:00,50.5,50.5,29.96,NNE,32,0.0,0.0,100,0.00,,,0.00,VWS V14.01,2013-09-25 12:47:00,
2013-09-25 08:52:00,51.0,51.0,29.96,NNE,32,0.0,0.0,100,0.00,,,0.00,VWS V14.01,2013-09-25 12:52:00,
2013-09-25 08:57:00,51.3,51.3,29.96,NNE,32,0.0,0.0,100,0.00,,,0.00,VWS V14.01,2013-09-25 12:57:00,
2013-09-25 09:00:00,45.7,44.6,29.94,NNE,32,0.0,0.0,96,0.00,,CLR,0.00,VWS V14.01,2013-09-25 13:00:00,
2013-09-25 09:02:00,51.6,51.6,29.96,NNE,32,0.0,0.0,100,0.00,,,0.00,VWS V14.01,2013-09-25 13:02:00,
2013-09-25 09:07:00,52.0,52.0,29.96,NNE,32,0.0,0.0,100,0.00,,,0.00,VWS V14.01,2013-09-25 13:07:00,
2013-09-25 09:12:00,52.2,51.7,29.96,NNE,32,0.0,1.0,98,0.00,,,0.00,VWS V14.01,2013-09-25 13:12:00,
2013-09-25 09:15:00,46.7,45.6,29.95,NNE,32,0.0,0.0,96,0.00,,CLR,0.00,VWS V14.01,2013-09-25 13:15:00,
2013-09-25 09:17:00,52.3,51.5,29.96,NE,34,0.0,1.0,97,0.00,,,0.00,VWS V14.01,2013-09-25 13:17:00,
2013-09-25 09:22:00,52.8,51.7,29.96,NNE,32,0.0,1.0,96,0.00,,,0.00,VWS V14.01,2013-09-25 13:22:00,
2013-09-25 09:27:00,53.1,51.7,29.96,NNE,32,0.0,0.0,95,0.00,,,0.00,VWS V14.01,2013-09-25 13:27:00,
2013-09-25 09:30:00,48.6,48.6,29.95,NNE,32,0.0,0.0,100,0.00,,CLR,0.00,VWS V14.01,2013-09-25 13:30:00,
2013-09-25 09:32:00,53.5,52.1,29.95,NNE,32,0.0,1.0,95,0.00,,,0.00,VWS V14.01,2013-09-25 13:32:00,
2013-09-25 09:37:00,54.5,52.8,29.95,NNE,31,0.0,1.0,94,0.00,,,0.00,VWS V14.01,2013-09-25 13:37:00,
2013-09-25 09:42:00,55.4,52.5,29.95,ENE,76,1.0,3.0,90,0.00,,,0.00,VWS V14.01,2013-09-25 13:42:00,
2013-09-25 09:45:00,50.4,50.4,29.96,NNE,32,0.0,0.0,100,0.00,,CLR,0.00,VWS V14.01,2013-09-25 13:45:00,
2013-09-25 09:47:00,56.2,52.4,29.95,NE,41,0.0,4.0,87,0.00,,,0.00,VWS V14.01,2013-09-25 13:47:00,
2013-09-25 09:52:00,57.2,53.4,29.95,NE,40,0.0,2.0,87,0.00,,,0.00,VWS V14.01,2013-09-25 13:52:00,
2013-09-25 09:57:00,58.1,52.6,29.95,NE,41,0.0,2.0,82,0.00,,,0.00,VWS V14.01,2013-09-25 13:57:00,
2013-09-25 10:00:00,51.4,51.4,29.96,NNE,32,0.0,0.0,100,0.00,,CLR,0.00,VWS V14.01,2013-09-25 14:00:00,
2013-09-25 10:02:00,58.9,53.4,29.95,NNE,32,1.0,2.0,82,0.00,,CLR,0.00,VWS V14.01,2013-09-25 14:02:00,
2013-09-25 10:07:00,59.6,52.7,29.95,NNE,20,3.0,3.0,78,0.00,,CLR,0.00,VWS V14.01,2013-09-25 14:07:00,
2013-09-25 10:12:00,60.2,53.3,29.95,NNE,20,3.0,3.0,78,0.00,,CLR,0.00,VWS V14.01,2013-09-25 14:12:00,
2013-09-25 10:15:00,52.3,51.5,29.96,NNE,32,0.0,1.0,97,0.00,,CLR,0.00,VWS V14.01,2013-09-25 14:15:00,
2013-09-25 10:17:00,60.7,53.5,29.94,NNE,20,0.0,3.0,77,0.00,,CLR,0.00,VWS V14.01,2013-09-25 14:17:00,
2013-09-25 10:22:00,60.7,53.5,29.94,NE,47,0.0,4.0,77,0.00,,CLR,0.00,VWS V14.01,2013-09-25 14:22:00,
2013-09-25 10:27:00,60.9,54.0,29.94,NE,38,0.0,2.0,78,0.00,,CLR,0.00,VWS V14.01,2013-09-25 14:27:00,
2013-09-25 10:30:00,53.3,51.9,29.95,NNE,32,0.0,1.0,95,0.00,,CLR,0.00,VWS V14.01,2013-09-25 14:30:00,
2013-09-25 10:32:00,60.9,53.7,29.93,NNE,25,0.0,2.0,77,0.00,,CLR,0.00,VWS V14.01,2013-09-25 14:32:00,
2013-09-25 10:37:00,61.2,53.9,29.93,NNE,25,0.0,0.0,77,0.00,,CLR,0.00,VWS V14.01,2013-09-25 14:37:00,
2013-09-25 10:42:00,61.8,53.8,29.93,NNE,25,0.0,0.0,75,0.00,,CLR,0.00,VWS V14.01,2013-09-25 14:42:00,
2013-09-25 10:45:00,55.9,52.4,29.95,NE,49,0.0,4.0,88,0.00,,CLR,0.00,VWS V14.01,2013-09-25 14:45:00,
2013-09-25 10:47:00,62.4,54.4,29.93,NE,49,1.0,3.0,75,0.00,,CLR,0.00,VWS V14.01,2013-09-25 14:47:00,
2013-09-25 10:52:00,63.2,54.4,29.93,NNE,24,4.0,4.0,73,0.00,,CLR,0.00,VWS V14.01,2013-09-25 14:52:00,
2013-09-25 10:57:00,64.2,54.6,29.93,NNW,336,0.0,6.0,71,0.00,,CLR,0.00,VWS V14.01,2013-09-25 14:57:00,
2013-09-25 11:00:00,58.4,52.9,29.95,NE,38,0.0,2.0,82,0.00,,CLR,0.00,VWS V14.01,2013-09-25 15:00:00,
2013-09-25 11:02:00,65.0,55.8,29.92,NNE,18,2.0,5.0,72,0.00,,CLR,0.00,VWS V14.01,2013-09-25 15:02:00,
2013-09-25 11:07:00,65.6,55.2,29.92,NNE,18,3.0,6.0,69,0.00,,CLR,0.00,VWS V14.01,2013-09-25 15:07:00,
2013-09-25 11:12:00,66.0,54.3,29.92,North,0,0.0,6.0,66,0.00,,CLR,0.00,VWS V14.01,2013-09-25 15:12:00,
2013-09-25 11:15:00,60.5,53.6,29.94,NNE,20,0.0,3.0,78,0.00,,CLR,0.00,VWS V14.01,2013-09-25 15:15:00,
2013-09-25 11:17:00,66.3,54.6,29.92,NE,48,0.0,4.0,66,0.00,,CLR,0.00,VWS V14.01,2013-09-25 15:17:00,
2013-09-25 11:22:00,66.6,55.3,29.92,NE,35,0.0,3.0,67,0.00,,CLR,0.00,VWS V14.01,2013-09-25 15:22:00,
2013-09-25 11:27:00,66.9,54.8,29.92,NNW,335,0.0,7.0,65,0.00,,CLR,0.00,VWS V14.01,2013-09-25 15:27:00,
2013-09-25 11:30:00,60.9,53.7,29.93,NE,40,0.0,2.0,77,0.00,,CLR,0.00,VWS V14.01,2013-09-25 15:30:00,
2013-09-25 11:32:00,67.1,54.5,29.93,North,349,0.0,7.0,64,0.00,,CLR,0.00,VWS V14.01,2013-09-25 15:32:00,
2013-09-25 11:37:00,67.3,53.8,29.93,NNW,347,0.0,4.0,62,0.00,,CLR,0.00,VWS V14.01,2013-09-25 15:37:00,
2013-09-25 11:42:00,67.8,55.2,29.93,NNE,27,0.0,5.0,64,0.00,,CLR,0.00,VWS V14.01,2013-09-25 15:42:00,
2013-09-25 11:45:00,62.1,54.1,29.93,NE,37,0.0,3.0,75,0.00,,CLR,0.00,VWS V14.01,2013-09-25 15:45:00,
2013-09-25 11:47:00,67.8,53.4,29.93,NE,49,0.0,5.0,60,0.00,,CLR,0.00,VWS V14.01,2013-09-25 15:47:00,
2013-09-25 11:52:00,67.6,53.7,29.93,NE,49,0.0,4.0,61,0.00,,CLR,0.00,VWS V14.01,2013-09-25 15:52:00,
2013-09-25 11:57:00,67.8,54.3,29.93,NNE,27,0.0,3.0,62,0.00,,CLR,0.00,VWS V14.01,2013-09-25 15:57:00,
2013-09-25 12:00:00,64.7,54.7,29.92,NNE,18,5.0,6.0,70,0.00,,CLR,0.00,VWS V14.01,2013-09-25 16:00:00,
2013-09-25 12:02:00,68.4,54.4,29.93,NNE,27,0.0,4.0,61,0.00,,CLR,0.00,VWS V14.01,2013-09-25 16:02:00,
2013-09-25 12:07:00,69.1,53.7,29.93,NNE,28,0.0,6.0,58,0.00,,CLR,0.00,VWS V14.01,2013-09-25 16:07:00,
2013-09-25 12:12:00,69.4,53.5,29.93,NE,52,0.0,6.0,57,0.00,,CLR,0.00,VWS V14.01,2013-09-25 16:12:00,
2013-09-25 12:15:00,66.3,54.6,29.92,North,0,0.0,6.0,66,0.00,,CLR,0.00,VWS V14.01,2013-09-25 16:15:00,
2013-09-25 12:17:00,69.4,53.5,29.92,NNE,31,0.0,5.0,57,0.00,,CLR,0.00,VWS V14.01,2013-09-25 16:17:00,
2013-09-25 12:22:00,69.3,53.4,29.92,NE,48,0.0,6.0,57,0.00,,CLR,0.00,VWS V14.01,2013-09-25 16:22:00,
2013-09-25 12:28:00,69.1,54.2,29.92,NNE,28,0.0,1.0,59,0.00,,CLR,0.00,VWS V14.01,2013-09-25 16:28:00,
2013-09-25 12:30:00,67.1,55.0,29.93,North,349,0.0,7.0,65,0.00,,CLR,0.00,VWS V14.01,2013-09-25 16:30:00,
2013-09-25 12:33:00,68.9,53.1,29.92,NNE,28,0.0,1.0,57,0.00,,CLR,0.00,VWS V14.01,2013-09-25 16:33:00,
2013-09-25 12:38:00,69.1,52.8,29.92,NNE,28,0.0,0.0,56,0.00,,CLR,0.00,VWS V14.01,2013-09-25 16:38:00,
2013-09-25 12:43:00,68.8,52.5,29.92,NNE,28,0.0,0.0,56,0.00,,CLR,0.00,VWS V14.01,2013-09-25 16:43:00,
2013-09-25 12:45:00,67.8,53.4,29.93,NE,49,0.0,5.0,60,0.00,,CLR,0.00,VWS V14.01,2013-09-25 16:45:00,
2013-09-25 12:48:00,68.6,52.3,29.92,NNE,28,0.0,0.0,56,0.00,,CLR,0.00,VWS V14.01,2013-09-25 16:48:00,
2013-09-25 12:53:00,68.4,51.6,29.92,NNE,28,0.0,1.0,55,0.00,,CLR,0.00,VWS V14.01,2013-09-25 16:53:00,
2013-09-25 12:58:00,68.3,53.0,29.92,NNE,28,0.0,1.0,58,0.00,,CLR,0.00,VWS V14.01,2013-09-25 16:58:00,
2013-09-25 13:00:00,68.1,53.7,29.93,NE,45,3.0,4.0,60,0.00,,CLR,0.00,VWS V14.01,2013-09-25 17:00:00,
2013-09-25 13:03:00,68.1,52.3,29.93,NNE,28,0.0,0.0,57,0.00,,CLR,0.00,VWS V14.01,2013-09-25 17:03:00,
2013-09-25 13:08:00,67.8,53.4,29.93,NNE,28,0.0,0.0,60,0.00,,CLR,0.00,VWS V14.01,2013-09-25 17:08:00,
2013-09-25 13:13:00,67.4,52.1,29.93,NNE,28,0.0,0.0,58,0.00,,CLR,0.00,VWS V14.01,2013-09-25 17:13:00,
2013-09-25 13:15:00,69.4,53.5,29.92,NE,51,0.0,5.0,57,0.00,,CLR,0.00,VWS V14.01,2013-09-25 17:15:00,
2013-09-25 13:18:00,67.1,52.3,29.93,NNE,31,0.0,2.0,59,0.00,,CLR,0.00,VWS V14.01,2013-09-25 17:18:00,
2013-09-25 13:23:00,66.9,52.1,29.93,NNE,31,0.0,0.0,59,0.00,,CLR,0.00,VWS V14.01,2013-09-25 17:23:00,
2013-09-25 13:29:00,67.3,53.4,29.93,NNE,31,0.0,2.0,61,0.00,,CLR,0.00,VWS V14.01,2013-09-25 17:29:00,
2013-09-25 13:30:00,69.1,53.2,29.92,NNE,28,0.0,1.0,57,0.00,,CLR,0.00,VWS V14.01,2013-09-25 17:30:00,
2013-09-25 13:34:00,67.8,53.0,29.92,NNE,31,0.0,2.0,59,0.00,,CLR,0.00,VWS V14.01,2013-09-25 17:34:00,
2013-09-25 13:39:00,68.4,54.0,29.92,NNE,31,0.0,0.0,60,0.00,,CLR,0.00,VWS V14.01,2013-09-25 17:39:00,
2013-09-25 13:44:00,69.1,52.8,29.92,NNE,31,0.0,1.0,56,0.00,,CLR,0.00,VWS V14.01,2013-09-25 17:44:00,
2013-09-25 13:45:00,68.6,52.3,29.92,NNE,28,0.0,0.0,56,0.00,,CLR,0.00,VWS V14.01,2013-09-25 17:45:00,
2013-09-25 13:49:00,69.4,51.5,29.91,NNE,28,0.0,5.0,53,0.00,,CLR,0.00,VWS V14.01,2013-09-25 17:49:00,
2013-09-25 13:54:00,69.8,52.9,29.91,NNW,344,0.0,7.0,55,0.00,,CLR,0.00,VWS V14.01,2013-09-25 17:54:00,
2013-09-25 13:59:00,70.1,54.2,29.91,East,95,0.0,7.0,57,0.00,,CLR,0.00,VWS V14.01,2013-09-25 17:59:00,
2013-09-25 14:00:00,68.3,52.0,29.93,NNE,28,0.0,1.0,56,0.00,,CLR,0.00,VWS V14.01,2013-09-25 18:00:00,
2013-09-25 14:04:00,70.8,55.3,29.91,East,95,0.0,0.0,58,0.00,,CLR,0.00,VWS V14.01,2013-09-25 18:04:00,
2013-09-25 14:09:00,71.3,53.3,29.91,East,93,0.0,1.0,53,0.00,,CLR,0.00,VWS V14.01,2013-09-25 18:09:00,
2013-09-25 14:14:00,71.6,53.1,29.91,North,11,0.0,3.0,52,0.00,,CLR,0.00,VWS V14.01,2013-09-25 18:14:00,
2013-09-25 14:15:00,67.3,52.5,29.93,NNE,31,0.0,2.0,59,0.00,,CLR,0.00,VWS V14.01,2013-09-25 18:15:00,
2013-09-25 14:19:00,72.1,53.5,29.90,North,8,1.0,6.0,52,0.00,,CLR,0.00,VWS V14.01,2013-09-25 18:19:00,
2013-09-25 14:24:00,72.3,52.1,29.90,NW,312,0.0,6.0,49,0.00,,CLR,0.00,VWS V14.01,2013-09-25 18:24:00,
2013-09-25 14:29:00,72.7,53.0,29.90,NW,312,0.0,6.0,50,0.00,,CLR,0.00,VWS V14.01,2013-09-25 18:29:00,
2013-09-25 14:30:00,67.3,52.5,29.92,NNE,31,0.0,2.0,59,0.00,,CLR,0.00,VWS V14.01,2013-09-25 18:30:00,
2013-09-25 14:34:00,73.2,55.1,29.89,NW,312,0.0,1.0,53,0.00,,CLR,0.00,VWS V14.01,2013-09-25 18:34:00,
2013-09-25 14:39:00,72.8,54.2,29.89,SSE,168,0.0,0.0,52,0.00,,CLR,0.00,VWS V14.01,2013-09-25 18:39:00,
2013-09-25 14:44:00,72.1,54.0,29.89,SSE,168,0.0,0.0,53,0.00,,CLR,0.00,VWS V14.01,2013-09-25 18:44:00,
2013-09-25 14:45:00,69.1,52.3,29.91,NNE,28,2.0,5.0,55,0.00,,CLR,0.00,VWS V14.01,2013-09-25 18:45:00,
2013-09-25 14:49:00,72.1,54.6,29.89,South,169,0.0,0.0,54,0.00,,CLR,0.00,VWS V14.01,2013-09-25 18:49:00,
2013-09-25 14:54:00,72.5,54.4,29.89,South,171,0.0,1.0,53,0.00,,CLR,0.00,VWS V14.01,2013-09-25 18:54:00,
2013-09-25 14:59:00,72.3,53.7,29.88,South,171,0.0,1.0,52,0.00,,CLR,0.00,VWS V14.01,2013-09-25 18:59:00,
2013-09-25 15:00:00,70.1,53.2,29.91,East,95,0.0,6.0,55,0.00,,CLR,0.00,VWS V14.01,2013-09-25 19:00:00,
2013-09-25 15:04:00,72.7,53.5,29.88,NNW,339,0.0,3.0,51,0.00,,CLR,0.00,VWS V14.01,2013-09-25 19:04:00,
2013-09-25 15:09:00,73.3,54.6,29.88,NNW,339,0.0,3.0,52,0.00,,CLR,0.00,VWS V14.01,2013-09-25 19:09:00,
2013-09-25 15:14:00,73.7,53.9,29.88,ENE,65,0.0,2.0,50,0.00,,CLR,0.00,VWS V14.01,2013-09-25 19:14:00,
2013-09-25 15:15:00,71.8,54.3,29.90,NNW,346,5.0,6.0,54,0.00,,CLR,0.00,VWS V14.01,2013-09-25 19:15:00,
2013-09-25 15:19:00,73.7,55.0,29.88,ENE,72,0.0,2.0,52,0.00,,CLR,0.00,VWS V14.01,2013-09-25 19:19:00,
2013-09-25 15:24:00,73.7,53.4,29.88,ENE,68,0.0,0.0,49,0.00,,CLR,0.00,VWS V14.01,2013-09-25 19:24:00,
2013-09-25 15:29:00,74.0,53.7,29.88,NE,45,0.0,0.0,49,0.00,,CLR,0.00,VWS V14.01,2013-09-25 19:29:00,
2013-09-25 15:30:00,72.7,52.5,29.89,NW,312,0.0,5.0,49,0.00,,CLR,0.00,VWS V14.01,2013-09-25 19:30:00,
2013-09-25 15:34:00,74.7,54.3,29.88,NE,55,0.0,5.0,49,0.00,,CLR,0.00,VWS V14.01,2013-09-25 19:34:00,
2013-09-25 15:39:00,75.3,54.8,29.88,NE,41,0.0,5.0,49,0.00,,CLR,0.00,VWS V14.01,2013-09-25 19:39:00,
2013-09-25 15:44:00,75.3,54.8,29.88,NE,47,0.0,5.0,49,0.00,,CLR,0.00,VWS V14.01,2013-09-25 19:44:00,
2013-09-25 15:45:00,72.1,54.0,29.89,South,169,0.0,0.0,53,0.00,,CLR,0.00,VWS V14.01,2013-09-25 19:45:00,
2013-09-25 15:49:00,75.1,54.7,29.88,NE,48,0.0,2.0,49,0.00,,CLR,0.00,VWS V14.01,2013-09-25 19:49:00,
2013-09-25 15:54:00,74.9,55.6,29.88,NE,48,0.0,0.0,51,0.00,,CLR,0.00,VWS V14.01,2013-09-25 19:54:00,
2013-09-25 15:59:00,74.4,55.1,29.88,SE,136,0.0,0.0,51,0.00,,CLR,0.00,VWS V14.01,2013-09-25 19:59:00,
2013-09-25 16:00:00,72.3,54.7,29.88,South,171,0.0,0.0,54,0.00,,CLR,0.00,VWS V14.01,2013-09-25 20:00:00,
2013-09-25 16:04:00,74.2,53.8,29.87,North,0,0.0,3.0,49,0.00,,CLR,0.00,VWS V14.01,2013-09-25 20:04:00,
2013-09-25 16:09:00,74.6,54.2,29.87,NNE,21,0.0,6.0,49,0.00,,CLR,0.00,VWS V14.01,2013-09-25 20:09:00,
2013-09-25 16:14:00,75.1,54.7,29.87,NE,40,0.0,6.0,49,0.00,,CLR,0.00,VWS V14.01,2013-09-25 20:14:00,
2013-09-25 16:15:00,73.5,54.3,29.88,ENE,65,0.0,2.0,51,0.00,,CLR,0.00,VWS V14.01,2013-09-25 20:15:00,
2013-09-25 16:19:00,75.8,53.6,29.87,NE,55,0.0,2.0,46,0.00,,CLR,0.00,VWS V14.01,2013-09-25 20:19:00,
2013-09-25 16:24:00,76.0,53.8,29.87,NE,55,0.0,2.0,46,0.00,,CLR,0.00,VWS V14.01,2013-09-25 20:24:00,
2013-09-25 16:29:00,75.6,53.4,29.87,NNE,16,0.0,6.0,46,0.00,,CLR,0.00,VWS V14.01,2013-09-25 20:29:00,
2013-09-25 16:30:00,74.2,54.9,29.88,NE,45,0.0,0.0,51,0.00,,CLR,0.00,VWS V14.01,2013-09-25 20:30:00,
2013-09-25 16:34:00,75.4,53.8,29.87,North,0,1.0,3.0,47,0.00,,CLR,0.00,VWS V14.01,2013-09-25 20:34:00,
2013-09-25 16:39:00,75.6,52.8,29.87,North,0,0.0,3.0,45,0.00,,CLR,0.00,VWS V14.01,2013-09-25 20:39:00,
2013-09-25 16:44:00,75.8,52.4,29.87,North,0,0.0,2.0,44,0.00,,CLR,0.00,VWS V14.01,2013-09-25 20:44:00,
2013-09-25 16:45:00,75.1,53.5,29.88,NE,47,0.0,5.0,47,0.00,,CLR,0.00,VWS V14.01,2013-09-25 20:45:00,
2013-09-25 16:49:00,76.1,52.6,29.87,NNE,25,0.0,5.0,44,0.00,,CLR,0.00,VWS V14.01,2013-09-25 20:49:00,
2013-09-25 16:54:00,76.3,52.8,29.87,NNE,23,0.0,5.0,44,0.00,,CLR,0.00,VWS V14.01,2013-09-25 20:54:00,
2013-09-25 16:59:00,76.5,51.1,29.87,NNE,24,0.0,5.0,41,0.00,,CLR,0.00,VWS V14.01,2013-09-25 20:59:00,
2013-09-25 17:00:00,74.2,54.4,29.87,NE,40,0.0,3.0,50,0.00,,CLR,0.00,VWS V14.01,2013-09-25 21:00:00,
2013-09-25 17:04:00,76.8,52.0,29.87,NNE,24,0.0,0.0,42,0.00,,CLR,0.00,VWS V14.01,2013-09-25 21:04:00,
2013-09-25 17:09:00,76.3,51.5,29.87,NNE,24,0.0,0.0,42,0.00,,CLR,0.00,VWS V14.01,2013-09-25 21:09:00,
2013-09-25 17:14:00,76.0,53.2,29.87,NNE,24,0.0,0.0,45,0.00,,CLR,0.00,VWS V14.01,2013-09-25 21:14:00,
2013-09-25 17:15:00,75.3,54.3,29.87,NE,41,0.0,6.0,48,0.00,,CLR,0.00,VWS V14.01,2013-09-25 21:15:00,
2013-09-25 17:19:00,75.4,52.6,29.87,NNE,24,0.0,0.0,45,0.00,,CLR,0.00,VWS V14.01,2013-09-25 21:19:00,
2013-09-25 17:24:00,74.9,52.2,29.87,NNE,24,0.0,0.0,45,0.00,,CLR,0.00,VWS V14.01,2013-09-25 21:24:00,
2013-09-25 17:29:00,74.2,52.7,29.87,NNE,24,0.0,0.0,47,0.00,,CLR,0.00,VWS V14.01,2013-09-25 21:29:00,
2013-09-25 17:30:00,75.6,54.5,29.87,NNE,16,0.0,6.0,48,0.00,,CLR,0.00,VWS V14.01,2013-09-25 21:30:00,
2013-09-25 17:34:00,73.9,51.8,29.87,NNE,24,0.0,0.0,46,0.00,,CLR,0.00,VWS V14.01,2013-09-25 21:34:00,
2013-09-25 17:39:00,73.7,53.4,29.87,NNE,24,0.0,0.0,49,0.00,,CLR,0.00,VWS V14.01,2013-09-25 21:39:00,
2013-09-25 17:44:00,73.5,53.7,29.87,NNE,24,0.0,0.0,50,0.00,,CLR,0.00,VWS V14.01,2013-09-25 21:44:00,
2013-09-25 17:45:00,76.0,53.8,29.87,North,0,0.0,0.0,46,0.00,,CLR,0.00,VWS V14.01,2013-09-25 21:45:00,
2013-09-25 17:49:00,73.3,54.1,29.88,NNE,24,0.0,0.0,51,0.00,,CLR,0.00,VWS V14.01,2013-09-25 21:49:00,
2013-09-25 17:54:00,72.5,54.9,29.88,NNE,24,0.0,0.0,54,0.00,,CLR,0.00,VWS V14.01,2013-09-25 21:54:00,
2013-09-25 17:59:00,71.6,54.6,29.88,NNE,24,0.0,0.0,55,0.00,,CLR,0.00,VWS V14.01,2013-09-25 21:59:00,
2013-09-25 18:00:00,76.7,51.2,29.87,NNE,24,0.0,5.0,41,0.00,,CLR,0.00,VWS V14.01,2013-09-25 22:00:00,
2013-09-25 18:04:00,70.8,53.8,29.88,NNE,24,0.0,0.0,55,0.00,,CLR,0.00,VWS V14.01,2013-09-25 22:04:00,
2013-09-25 18:09:00,70.3,54.4,29.88,NNE,24,0.0,1.0,57,0.00,,CLR,0.00,VWS V14.01,2013-09-25 22:09:00,
2013-09-25 18:14:00,69.9,54.5,29.88,NE,35,0.0,1.0,58,0.00,,CLR,0.00,VWS V14.01,2013-09-25 22:14:00,
2013-09-25 18:15:00,75.8,52.4,29.87,NNE,24,0.0,0.0,44,0.00,,CLR,0.00,VWS V14.01,2013-09-25 22:15:00,
2013-09-25 18:19:00,69.6,55.1,29.89,NE,35,0.0,0.0,60,0.00,,CLR,0.00,VWS V14.01,2013-09-25 22:19:00,
2013-09-25 18:24:00,69.3,55.7,29.89,NE,35,0.0,0.0,62,0.00,,CLR,0.00,VWS V14.01,2013-09-25 22:24:00,
2013-09-25 18:29:00,69.1,55.1,29.89,NE,35,0.0,0.0,61,0.00,,CLR,0.00,VWS V14.01,2013-09-25 22:29:00,
2013-09-25 18:30:00,74.0,51.9,29.87,NNE,24,0.0,0.0,46,0.00,,CLR,0.00,VWS V14.01,2013-09-25 22:30:00,
2013-09-25 18:34:00,68.9,54.9,29.89,NE,35,0.0,0.0,61,0.00,,CLR,0.00,VWS V14.01,2013-09-25 22:34:00,
2013-09-25 18:39:00,68.8,54.8,29.89,NE,35,0.0,0.0,61,0.00,,CLR,0.00,VWS V14.01,2013-09-25 22:39:00,
2013-09-25 18:44:00,68.6,55.5,29.89,NE,35,0.0,0.0,63,0.00,,CLR,0.00,VWS V14.01,2013-09-25 22:44:00,
2013-09-25 18:45:00,73.5,54.8,29.88,NNE,24,0.0,0.0,52,0.00,,CLR,0.00,VWS V14.01,2013-09-25 22:45:00,
2013-09-25 18:49:00,68.6,56.0,29.89,NE,35,0.0,0.0,64,0.00,,CLR,0.00,VWS V14.01,2013-09-25 22:49:00,
2013-09-25 18:54:00,68.4,56.2,29.89,NE,35,0.0,0.0,65,0.00,,CLR,0.00,VWS V14.01,2013-09-25 22:54:00,
2013-09-25 18:59:00,68.3,56.5,29.89,NE,35,0.0,0.0,66,0.00,,CLR,0.00,VWS V14.01,2013-09-25 22:59:00,
2013-09-25 19:00:00,71.3,54.8,29.88,NNE,24,0.0,0.0,56,0.00,,CLR,0.00,VWS V14.01,2013-09-25 23:00:00,
2013-09-25 19:04:00,67.9,56.5,29.89,NE,35,0.0,0.0,67,0.00,,CLR,0.00,VWS V14.01,2013-09-25 23:04:00,
2013-09-25 19:09:00,67.8,56.9,29.89,NE,35,0.0,0.0,68,0.00,,CLR,0.00,VWS V14.01,2013-09-25 23:09:00,
2013-09-25 19:14:00,67.4,56.9,29.89,NE,35,0.0,0.0,69,0.00,,CLR,0.00,VWS V14.01,2013-09-25 23:14:00,
2013-09-25 19:15:00,69.8,54.8,29.89,NE,35,0.0,1.0,59,0.00,,CLR,0.00,VWS V14.01,2013-09-25 23:15:00,
2013-09-25 19:19:00,67.1,56.6,29.90,NE,35,0.0,0.0,69,0.00,,CLR,0.00,VWS V14.01,2013-09-25 23:19:00,
2013-09-25 19:23:00,66.6,56.9,29.90,NE,35,0.0,0.0,71,0.00,,CLR,0.00,VWS V14.01,2013-09-25 23:23:00,
2013-09-25 19:28:00,66.1,56.8,29.90,NE,35,0.0,0.0,72,0.00,,CLR,0.00,VWS V14.01,2013-09-25 23:28:00,
2013-09-25 19:30:00,69.1,55.1,29.89,NE,35,0.0,0.0,61,0.00,,CLR,0.00,VWS V14.01,2013-09-25 23:30:00,
2013-09-25 19:33:00,65.5,56.6,29.90,NE,35,0.0,0.0,73,0.00,,CLR,0.00,VWS V14.01,2013-09-25 23:33:00,
2013-09-25 19:38:00,65.0,56.5,29.90,NE,35,0.0,0.0,74,0.00,,CLR,0.00,VWS V14.01,2013-09-25 23:38:00,
2013-09-25 19:43:00,64.3,56.2,29.90,NE,35,0.0,0.0,75,0.00,,CLR,0.00,VWS V14.01,2013-09-25 23:43:00,
2013-09-25 19:45:00,68.6,55.5,29.89,NE,35,0.0,0.0,63,0.00,,CLR,0.00,VWS V14.01,2013-09-25 23:45:00,
2013-09-25 19:48:00,63.9,55.8,29.90,NE,35,0.0,0.0,75,0.00,,CLR,0.00,VWS V14.01,2013-09-25 23:48:00,
2013-09-25 19:53:00,63.4,55.7,29.90,NE,35,0.0,0.0,76,0.00,,CLR,0.00,VWS V14.01,2013-09-25 23:53:00,
2013-09-25 19:58:00,62.9,55.6,29.90,NE,35,0.0,0.0,77,0.00,,CLR,0.00,VWS V14.01,2013-09-25 23:58:00,
2013-09-25 20:00:00,68.3,56.9,29.89,NE,35,0.0,0.0,67,0.00,,CLR,0.00,VWS V14.01,2013-09-26 00:00:00,
2013-09-25 20:03:00,62.4,55.1,29.90,NE,35,0.0,0.0,77,0.00,,CLR,0.00,VWS V14.01,2013-09-26 00:03:00,
2013-09-25 20:08:00,62.0,55.1,29.90,NE,35,0.0,0.0,78,0.00,,CLR,0.00,VWS V14.01,2013-09-26 00:08:00,
2013-09-25 20:13:00,61.6,55.0,29.90,NE,35,0.0,0.0,79,0.00,,CLR,0.00,VWS V14.01,2013-09-26 00:13:00,
2013-09-25 20:15:00,67.3,56.8,29.90,NE,35,0.0,0.0,69,0.00,,CLR,0.00,VWS V14.01,2013-09-26 00:15:00,
2013-09-25 20:18:00,61.2,54.6,29.90,NE,35,0.0,0.0,79,0.00,,CLR,0.00,VWS V14.01,2013-09-26 00:18:00,
2013-09-25 20:23:00,60.9,54.7,29.90,NE,35,0.0,0.0,80,0.00,,CLR,0.00,VWS V14.01,2013-09-26 00:23:00,
2013-09-25 20:28:00,60.4,54.5,29.90,NE,35,0.0,0.0,81,0.00,,CLR,0.00,VWS V14.01,2013-09-26 00:28:00,
2013-09-25 20:30:00,66.0,56.7,29.90,NE,35,0.0,0.0,72,0.00,,CLR,0.00,VWS V14.01,2013-09-26 00:30:00,
2013-09-25 20:33:00,59.9,54.4,29.90,NE,35,0.0,0.0,82,0.00,,CLR,0.00,VWS V14.01,2013-09-26 00:33:00,
2013-09-25 20:38:00,59.6,54.1,29.90,NE,35,0.0,0.0,82,0.00,,CLR,0.00,VWS V14.01,2013-09-26 00:38:00,
2013-09-25 20:43:00,59.3,54.2,29.90,NE,35,0.0,0.0,83,0.00,,CLR,0.00,VWS V14.01,2013-09-26 00:43:00,
2013-09-25 20:45:00,64.2,56.1,29.90,NE,35,0.0,0.0,75,0.00,,CLR,0.00,VWS V14.01,2013-09-26 00:45:00,
2013-09-25 20:48:00,58.9,53.8,29.91,NE,35,0.0,0.0,83,0.00,,CLR,0.00,VWS V14.01,2013-09-26 00:48:00,
2013-09-25 20:53:00,58.4,53.6,29.91,NE,35,0.0,0.0,84,0.00,,CLR,0.00,VWS V14.01,2013-09-26 00:53:00,
2013-09-25 20:58:00,58.1,53.3,29.91,NE,35,0.0,0.0,84,0.00,,CLR,0.00,VWS V14.01,2013-09-26 00:58:00,
2013-09-25 21:00:00,62.7,55.4,29.90,NE,35,0.0,0.0,77,0.00,,CLR,0.00,VWS V14.01,2013-09-26 01:00:00,
2013-09-25 21:03:00,57.8,53.0,29.91,NE,35,0.0,0.0,84,0.00,,CLR,0.00,VWS V14.01,2013-09-26 01:03:00,
2013-09-25 21:08:00,57.5,53.0,29.91,NE,35,0.0,0.0,85,0.00,,CLR,0.00,VWS V14.01,2013-09-26 01:08:00,
2013-09-25 21:13:00,57.2,52.7,29.91,NE,35,0.0,0.0,85,0.00,,CLR,0.00,VWS V14.01,2013-09-26 01:13:00,
2013-09-25 21:15:00,61.5,54.9,29.90,NE,35,0.0,0.0,79,0.00,,CLR,0.00,VWS V14.01,2013-09-26 01:15:00,
2013-09-25 21:18:00,56.7,52.2,29.91,NE,35,0.0,0.0,85,0.00,,CLR,0.00,VWS V14.01,2013-09-26 01:18:00,
2013-09-25 21:23:00,56.5,52.4,29.91,NE,35,0.0,0.0,86,0.00,,CLR,0.00,VWS V14.01,2013-09-26 01:23:00,
2013-09-25 21:28:00,56.2,52.1,29.91,NE,35,0.0,0.0,86,0.00,,CLR,0.00,VWS V14.01,2013-09-26 01:28:00,
2013-09-25 21:30:00,60.2,54.4,29.90,NE,35,0.0,0.0,81,0.00,,CLR,0.00,VWS V14.01,2013-09-26 01:30:00,
2013-09-25 21:33:00,55.9,52.1,29.91,NE,35,0.0,0.0,87,0.00,,CLR,0.00,VWS V14.01,2013-09-26 01:33:00,
2013-09-25 21:38:00,55.7,51.9,29.91,NE,35,0.0,0.0,87,0.00,,CLR,0.00,VWS V14.01,2013-09-26 01:38:00,
2013-09-25 21:43:00,55.4,51.6,29.91,NE,35,0.0,0.0,87,0.00,,CLR,0.00,VWS V14.01,2013-09-26 01:43:00,
2013-09-25 21:45:00,59.2,54.0,29.91,NE,35,0.0,0.0,83,0.00,,CLR,0.00,VWS V14.01,2013-09-26 01:45:00,
2013-09-25 21:48:00,55.3,51.8,29.91,NE,35,0.0,0.0,88,0.00,,CLR,0.00,VWS V14.01,2013-09-26 01:48:00,
2013-09-25 21:53:00,55.0,51.5,29.91,NE,35,0.0,0.0,88,0.00,,CLR,0.00,VWS V14.01,2013-09-26 01:53:00,
2013-09-25 21:58:00,54.8,51.3,29.91,NE,35,0.0,0.0,88,0.00,,CLR,0.00,VWS V14.01,2013-09-26 01:58:00,
2013-09-25 22:00:00,58.0,53.2,29.91,NE,35,0.0,0.0,84,0.00,,CLR,0.00,VWS V14.01,2013-09-26 02:00:00,
2013-09-25 22:03:00,54.7,51.2,29.91,NE,35,0.0,0.0,88,0.00,,CLR,0.00,VWS V14.01,2013-09-26 02:03:00,
2013-09-25 22:08:00,54.5,51.3,29.91,NE,35,0.0,0.0,89,0.00,,CLR,0.00,VWS V14.01,2013-09-26 02:08:00,
2013-09-25 22:13:00,54.4,51.2,29.91,NE,35,0.0,0.0,89,0.00,,CLR,0.00,VWS V14.01,2013-09-26 02:13:00,
2013-09-25 22:15:00,57.0,52.5,29.91,NE,35,0.0,0.0,85,0.00,,CLR,0.00,VWS V14.01,2013-09-26 02:15:00,
2013-09-25 22:18:00,54.2,51.0,29.91,NE,35,0.0,0.0,89,0.00,,CLR,0.00,VWS V14.01,2013-09-26 02:18:00,
2013-09-25 22:23:00,54.1,51.2,29.91,NE,35,0.0,0.0,90,0.00,,CLR,0.00,VWS V14.01,2013-09-26 02:23:00,
2013-09-25 22:28:00,53.8,50.9,29.91,NE,35,0.0,0.0,90,0.00,,CLR,0.00,VWS V14.01,2013-09-26 02:28:00,
2013-09-25 22:30:00,56.2,52.4,29.91,NE,35,0.0,0.0,87,0.00,,CLR,0.00,VWS V14.01,2013-09-26 02:30:00,
2013-09-25 22:34:00,53.6,50.7,29.91,NE,35,0.0,0.0,90,0.00,,CLR,0.00,VWS V14.01,2013-09-26 02:34:00,
2013-09-25 22:39:00,53.6,50.7,29.91,NE,35,0.0,0.0,90,0.00,,CLR,0.00,VWS V14.01,2013-09-26 02:39:00,
2013-09-25 22:44:00,53.6,51.0,29.92,NE,35,0.0,0.0,91,0.00,,CLR,0.00,VWS V14.01,2013-09-26 02:44:00,
2013-09-25 22:45:00,55.4,51.6,29.91,NE,35,0.0,0.0,87,0.00,,CLR,0.00,VWS V14.01,2013-09-26 02:45:00,
2013-09-25 22:49:00,53.5,50.9,29.92,NE,35,0.0,0.0,91,0.00,,CLR,0.00,VWS V14.01,2013-09-26 02:49:00,
2013-09-25 22:54:00,53.3,50.7,29.92,NE,35,0.0,0.0,91,0.00,,CLR,0.00,VWS V14.01,2013-09-26 02:54:00,
2013-09-25 22:59:00,53.2,50.7,29.92,NE,35,0.0,0.0,91,0.00,,CLR,0.00,VWS V14.01,2013-09-26 02:59:00,
2013-09-25 23:00:00,54.8,51.3,29.91,NE,35,0.0,0.0,88,0.00,,CLR,0.00,VWS V14.01,2013-09-26 03:00:00,
2013-09-25 23:04:00,52.9,50.3,29.92,NE,35,0.0,0.0,91,0.00,,,0.00,VWS V14.01,2013-09-26 03:04:00,
2013-09-25 23:09:00,52.8,50.2,29.92,NE,35,0.0,0.0,91,0.00,,,0.00,VWS V14.01,2013-09-26 03:09:00,
2013-09-25 23:14:00,52.5,50.0,29.92,NE,35,0.0,0.0,91,0.00,,,0.00,VWS V14.01,2013-09-26 03:14:00,
2013-09-25 23:15:00,54.4,51.2,29.91,NE,35,0.0,0.0,89,0.00,,CLR,0.00,VWS V14.01,2013-09-26 03:15:00,
2013-09-25 23:19:00,52.3,50.0,29.92,NE,35,0.0,0.0,92,0.00,,,0.00,VWS V14.01,2013-09-26 03:19:00,
2013-09-25 23:24:00,52.3,50.0,29.92,NE,35,0.0,0.0,92,0.00,,,0.00,VWS V14.01,2013-09-26 03:24:00,
2013-09-25 23:29:00,52.2,50.0,29.92,NE,35,0.0,0.0,92,0.00,,,0.00,VWS V14.01,2013-09-26 03:29:00,
2013-09-25 23:30:00,53.8,50.9,29.91,NE,35,0.0,0.0,90,0.00,,CLR,0.00,VWS V14.01,2013-09-26 03:30:00,
2013-09-25 23:34:00,52.2,50.0,29.92,NE,35,0.0,0.0,92,0.00,,,0.00,VWS V14.01,2013-09-26 03:34:00,
2013-09-25 23:40:00,52.2,50.0,29.92,NE,35,0.0,0.0,92,0.00,,,0.00,VWS V14.01,2013-09-26 03:40:00,
2013-09-25 23:45:00,52.2,50.0,29.92,NE,35,0.0,0.0,92,0.00,,,0.00,VWS V14.01,2013-09-26 03:45:00,
2013-09-25 23:50:00,52.2,50.0,29.92,NE,35,0.0,0.0,92,0.00,,,0.00,VWS V14.01,2013-09-26 03:50:00,
2013-09-25 23:55:00,52.0,49.8,29.92,NE,35,0.0,0.0,92,0.00,,,0.00,VWS V14.01,2013-09-26 03:55:00,